,,Stat6,,Stat2,,Stat8,,Stat9,,Stat10,,Wind1,,Wind1,
time,status,PA1M_AVG,status,PR1M_SUM,status,RH1M_AVG,status,SR1M_AVG,status,TA1M_AVG,status,W1dAve1m,status,W1sAve1m,
2004-10-21, 00:00:01,VALID,917.118,VALID,0,VALID,100,VALID,0.0169808,VALID,19.5599,VALID,127,VALID,0.0587798,
2004-10-21, 00:01:01,VALID,917.102,VALID,0,VALID,100,VALID,0.0169808,VALID,19.5529,VALID,127,VALID,0,
2004-10-21, 00:02:00,VALID,917.083,VALID,0,VALID,100,VALID,0.0169808,VALID,19.55,VALID,127,VALID,0,
2004-10-21, 00:03:00,VALID,917.073,VALID,0,VALID,100,VALID,0.0509425,VALID,19.5236,VALID,127,VALID,0.279652,
2004-10-21, 00:04:00,VALID,917.055,VALID,0,VALID,100,VALID,0.0169808,VALID,19.5144,VALID,127,VALID,0.356534,
2004-10-21, 00:05:00,VALID,917.032,VALID,0,VALID,100,VALID,0.0169808,VALID,19.5015,VALID,127,VALID,0.247692,
2004-10-21, 00:06:01,VALID,917.011,VALID,0,VALID,100,VALID,0.0339617,VALID,19.4822,VALID,127,VALID,0.0305398,
2004-10-21, 00:07:00,VALID,916.981,VALID,0,VALID,100,VALID,0.0169808,VALID,19.4822,VALID,127,VALID,0.0423018,
2004-10-21, 00:08:00,VALID,916.959,VALID,0,VALID,100,VALID,0.0509425,VALID,19.4757,VALID,127,VALID,0.226944,
2004-10-21, 00:09:01,VALID,916.95,VALID,0,VALID,100,VALID,0.0509425,VALID,19.4755,VALID,128,VALID,0.477805,
2004-10-21, 00:10:01,VALID,916.937,VALID,0,VALID,100,VALID,0.0679233,VALID,19.4757,VALID,132,VALID,0.594141,
2004-10-21, 00:11:00,VALID,916.923,VALID,0,VALID,100,VALID,0.0679233,VALID,19.4794,VALID,162,VALID,0.555831,
2004-10-21, 00:12:00,VALID,916.915,VALID,0,VALID,100,VALID,0.0339617,VALID,19.4625,VALID,143,VALID,0.458854,
2004-10-21, 00:13:01,VALID,916.902,VALID,0,VALID,100,VALID,0.0169808,VALID,19.46,VALID,153,VALID,0.573401,
2004-10-21, 00:14:00,VALID,916.888,VALID,0,VALID,100,VALID,0,VALID,19.4466,VALID,171,VALID,0.584339,
2004-10-21, 00:15:00,VALID,916.872,VALID,0,VALID,100,VALID,-0.0679233,VALID,19.4484,VALID,180,VALID,0.118253,
2004-10-21, 00:16:00,VALID,916.866,VALID,0,VALID,100,VALID,-0.0849042,VALID,19.4384,VALID,181,VALID,0.293403,
2004-10-21, 00:17:00,VALID,916.859,VALID,0,VALID,100,VALID,-0.0339617,VALID,19.4352,VALID,181,VALID,0.156441,
2004-10-21, 00:18:01,VALID,916.852,VALID,0,VALID,100,VALID,-0.0679233,VALID,19.4287,VALID,181,VALID,0,
2004-10-21, 00:19:00,VALID,916.858,VALID,0,VALID,100,VALID,-0.0679233,VALID,19.4354,VALID,181,VALID,0,
2004-10-21, 00:20:01,VALID,916.864,VALID,0,VALID,100,VALID,-0.0849042,VALID,19.4352,VALID,181,VALID,0,
2004-10-21, 00:21:00,VALID,916.854,VALID,0,VALID,100,VALID,-0.0849042,VALID,19.4387,VALID,181,VALID,0,
2004-10-21, 00:22:01,VALID,916.844,VALID,0,VALID,100,VALID,-0.0679233,VALID,19.4454,VALID,181,VALID,0,
2004-10-21, 00:23:00,VALID,916.846,VALID,0,VALID,100,VALID,-0.101885,VALID,19.429,VALID,181,VALID,0.0442708,
2004-10-21, 00:24:00,VALID,916.85,VALID,0,VALID,100,VALID,-0.101885,VALID,19.4228,VALID,181,VALID,0.243823,
2004-10-21, 00:25:00,VALID,916.839,VALID,0,VALID,100,VALID,-0.0679233,VALID,19.4193,VALID,127,VALID,0.460938,
2004-10-21, 00:26:01,VALID,916.836,VALID,0,VALID,100,VALID,-0.0849042,VALID,19.4193,VALID,71,VALID,0.659299,
2004-10-21, 00:27:01,VALID,916.817,VALID,0,VALID,100,VALID,-0.0849042,VALID,19.4161,VALID,67,VALID,0.412791,
2004-10-21, 00:28:00,VALID,916.805,VALID,0,VALID,100,VALID,-0.101885,VALID,19.3994,VALID,67,VALID,0.384673,
2004-10-21, 00:29:01,VALID,916.792,VALID,0,VALID,100,VALID,-0.0679233,VALID,19.3902,VALID,67,VALID,0.231585,
2004-10-21, 00:30:01,VALID,916.775,VALID,0,VALID,100,VALID,-0.0169808,VALID,19.389,VALID,67,VALID,0.134115,
2004-10-21, 00:31:01,VALID,916.762,VALID,0,VALID,100,VALID,0,VALID,19.4121,VALID,67,VALID,0.317116,
2004-10-21, 00:32:00,VALID,916.755,VALID,0,VALID,100,VALID,-0.0169808,VALID,19.3893,VALID,67,VALID,0.259337,
2004-10-21, 00:33:01,VALID,916.746,VALID,0,VALID,100,VALID,0,VALID,19.3796,VALID,115,VALID,0.456364,
2004-10-21, 00:34:00,VALID,916.721,VALID,0,VALID,100,VALID,0,VALID,19.3823,VALID,134,VALID,0.49272,
2004-10-21, 00:35:01,VALID,916.717,VALID,0,VALID,100,VALID,-0.0169808,VALID,19.3982,VALID,134,VALID,0.408296,
2004-10-21, 00:36:01,VALID,916.715,VALID,0,VALID,100,VALID,0.0169808,VALID,19.4116,VALID,134,VALID,0.489583,
2004-10-21, 00:37:01,VALID,916.692,VALID,0,VALID,100,VALID,-0.0169808,VALID,19.4114,VALID,138,VALID,0.658628,
2004-10-21, 00:38:00,VALID,916.685,VALID,0,VALID,100,VALID,0,VALID,19.4213,VALID,145,VALID,0.795272,
2004-10-21, 00:39:01,VALID,916.671,VALID,0,VALID,100,VALID,0,VALID,19.4345,VALID,140,VALID,0.910334,
2004-10-21, 00:40:00,VALID,916.663,VALID,0,VALID,100,VALID,0,VALID,19.4444,VALID,154,VALID,0.874151,
2004-10-21, 00:41:01,VALID,916.643,VALID,0,VALID,100,VALID,0,VALID,19.4568,VALID,144,VALID,0.780717,
2004-10-21, 00:42:00,VALID,916.631,VALID,0,VALID,100,VALID,-0.0169808,VALID,19.4864,VALID,144,VALID,0.815451,
2004-10-21, 00:43:01,VALID,916.607,VALID,0,VALID,100,VALID,0,VALID,19.4923,VALID,143,VALID,0.887074,
2004-10-21, 00:44:01,VALID,916.608,VALID,0,VALID,100,VALID,-0.0339617,VALID,19.512,VALID,141,VALID,0.777549,
2004-10-21, 00:45:01,VALID,916.597,VALID,0,VALID,100,VALID,-0.0339617,VALID,19.5184,VALID,137,VALID,0.674701,
2004-10-21, 00:46:01,VALID,916.58,VALID,0,VALID,100,VALID,-0.0169808,VALID,19.5187,VALID,151,VALID,0.799479,
2004-10-21, 00:47:01,VALID,916.574,VALID,0,VALID,99.9596,VALID,-0.0169808,VALID,19.5187,VALID,158,VALID,0.843217,
2004-10-21, 00:48:01,VALID,916.567,VALID,0,VALID,99.9265,VALID,-0.0169808,VALID,19.5154,VALID,177,VALID,0.33718,
2004-10-21, 00:49:01,VALID,916.549,VALID,0,VALID,99.9507,VALID,0,VALID,19.5149,VALID,179,VALID,0,
2004-10-21, 00:50:01,VALID,916.548,VALID,0,VALID,99.9583,VALID,-0.0169808,VALID,19.5249,VALID,179,VALID,0,
2004-10-21, 00:51:01,VALID,916.561,VALID,0,VALID,99.9545,VALID,-0.0339617,VALID,19.5087,VALID,179,VALID,0,
2004-10-21, 00:52:01,VALID,916.567,VALID,0,VALID,99.9583,VALID,-0.0169808,VALID,19.4953,VALID,179,VALID,0.250617,
2004-10-21, 00:53:01,VALID,916.561,VALID,0,VALID,99.9873,VALID,-0.0339617,VALID,19.4926,VALID,216,VALID,0.40734,
2004-10-21, 00:54:01,VALID,916.561,VALID,0,VALID,100,VALID,0,VALID,19.4923,VALID,272,VALID,0.230283,
2004-10-21, 00:55:01,VALID,916.552,VALID,0,VALID,100,VALID,-0.0169808,VALID,19.4829,VALID,273,VALID,0.25558,
2004-10-21, 00:56:01,VALID,916.544,VALID,0,VALID,100,VALID,0,VALID,19.4663,VALID,273,VALID,0.0288881,
2004-10-21, 00:57:01,VALID,916.528,VALID,0,VALID,100,VALID,0,VALID,19.467,VALID,273,VALID,0,
2004-10-21, 00:58:01,VALID,916.526,VALID,0,VALID,100,VALID,-0.0169808,VALID,19.4571,VALID,273,VALID,0,
2004-10-21, 00:59:01,VALID,916.517,VALID,0,VALID,100,VALID,0,VALID,19.4536,VALID,273,VALID,0,
2004-10-21, 01:00:01,VALID,916.51,VALID,0,VALID,100,VALID,0,VALID,19.4402,VALID,273,VALID,0,
2004-10-21, 01:01:01,VALID,916.5,VALID,0,VALID,100,VALID,-0.0169808,VALID,19.4536,VALID,273,VALID,0.0101744,
2004-10-21, 01:02:01,VALID,916.492,VALID,0,VALID,100,VALID,0,VALID,19.4536,VALID,274,VALID,0.207564,
2004-10-21, 01:03:01,VALID,916.481,VALID,0,VALID,100,VALID,-0.0169808,VALID,19.4441,VALID,274,VALID,0.168155,
2004-10-21, 01:04:01,VALID,916.471,VALID,0,VALID,100,VALID,0,VALID,19.4312,VALID,274,VALID,0,
2004-10-21, 01:05:01,VALID,916.459,VALID,0,VALID,100,VALID,0,VALID,19.4148,VALID,274,VALID,0,
2004-10-21, 01:06:01,VALID,916.469,VALID,0,VALID,100,VALID,0,VALID,19.4183,VALID,274,VALID,0,
2004-10-21, 01:07:01,VALID,916.458,VALID,0,VALID,100,VALID,0,VALID,19.4022,VALID,274,VALID,0,
2004-10-21, 01:08:01,VALID,916.458,VALID,0,VALID,100,VALID,0,VALID,19.3989,VALID,274,VALID,0,
2004-10-21, 01:09:01,VALID,916.466,VALID,0,VALID,100,VALID,0,VALID,19.3985,VALID,279,VALID,0.103981,
2004-10-21, 01:10:01,VALID,916.465,VALID,0,VALID,100,VALID,0,VALID,19.4119,VALID,41,VALID,0.62128,
2004-10-21, 01:11:01,VALID,916.463,VALID,0,VALID,100,VALID,0.0169808,VALID,19.3922,VALID,41,VALID,0.748547,
2004-10-21, 01:12:01,VALID,916.445,VALID,0,VALID,100,VALID,-0.0169808,VALID,19.3761,VALID,41,VALID,0.733103,
2004-10-21, 01:13:01,VALID,916.452,VALID,0,VALID,100,VALID,-0.0339617,VALID,19.354,VALID,41,VALID,0.822731,
2004-10-21, 01:14:01,VALID,916.44,VALID,0,VALID,100,VALID,0,VALID,19.3344,VALID,41,VALID,0.944271,
2004-10-21, 01:15:00,VALID,916.435,VALID,0,VALID,100,VALID,-0.0169808,VALID,19.3217,VALID,41,VALID,0.99564,
2004-10-21, 01:16:00,VALID,916.426,VALID,0,VALID,100,VALID,0,VALID,19.3021,VALID,41,VALID,0.934152,
2004-10-21, 01:17:00,VALID,916.409,VALID,0,VALID,100,VALID,0,VALID,19.2959,VALID,40,VALID,0.739702,
2004-10-21, 01:18:00,VALID,916.404,VALID,0,VALID,100,VALID,0,VALID,19.2822,VALID,41,VALID,0.788504,
2004-10-21, 01:19:00,VALID,916.402,VALID,0,VALID,100,VALID,0,VALID,19.2956,VALID,48,VALID,0.770461,
2004-10-21, 01:20:00,VALID,916.396,VALID,0,VALID,100,VALID,0.0169808,VALID,19.2894,VALID,53,VALID,0.74256,
2004-10-21, 01:21:00,VALID,916.383,VALID,0,VALID,100,VALID,0,VALID,19.2792,VALID,59,VALID,0.710227,
2004-10-21, 01:22:00,VALID,916.363,VALID,0,VALID,100,VALID,0,VALID,19.2827,VALID,65,VALID,0.437863,
2004-10-21, 01:23:00,VALID,916.351,VALID,0,VALID,100,VALID,0.0169808,VALID,19.2762,VALID,65,VALID,0.101151,
2004-10-21, 01:24:00,VALID,916.343,VALID,0,VALID,100,VALID,-0.0169808,VALID,19.2666,VALID,65,VALID,0,
2004-10-21, 01:25:00,VALID,916.35,VALID,0,VALID,100,VALID,0.0169808,VALID,19.2797,VALID,65,VALID,0.0878057,
2004-10-21, 01:26:00,VALID,916.348,VALID,0,VALID,100,VALID,0,VALID,19.2859,VALID,65,VALID,0.171113,
2004-10-21, 01:27:00,VALID,916.345,VALID,0,VALID,100,VALID,-0.0169808,VALID,19.2894,VALID,65,VALID,0.190952,
2004-10-21, 01:28:00,VALID,916.341,VALID,0,VALID,100,VALID,-0.0339617,VALID,19.2832,VALID,65,VALID,0.260547,
2004-10-21, 01:29:00,VALID,916.353,VALID,0,VALID,100,VALID,-0.0169808,VALID,19.2926,VALID,65,VALID,0.45633,
2004-10-21, 01:30:00,VALID,916.345,VALID,0,VALID,100,VALID,0.0509425,VALID,19.3016,VALID,65,VALID,0.533594,
2004-10-21, 01:31:00,VALID,916.358,VALID,0,VALID,100,VALID,0.0849042,VALID,19.2984,VALID,65,VALID,0.482329,
2004-10-21, 01:32:00,VALID,916.35,VALID,0,VALID,100,VALID,0.0679233,VALID,19.2815,VALID,65,VALID,0.459121,
2004-10-21, 01:33:00,VALID,916.371,VALID,0,VALID,100,VALID,0.0169808,VALID,19.2725,VALID,65,VALID,0.401163,
2004-10-21, 01:34:00,VALID,916.368,VALID,0,VALID,100,VALID,0.0849042,VALID,19.2658,VALID,65,VALID,0.405134,
2004-10-21, 01:35:00,VALID,916.378,VALID,0,VALID,100,VALID,0.0509425,VALID,19.2695,VALID,65,VALID,0.133371,
2004-10-21, 01:36:00,VALID,916.365,VALID,0,VALID,100,VALID,0,VALID,19.2728,VALID,65,VALID,0,
2004-10-21, 01:37:00,VALID,916.35,VALID,0,VALID,100,VALID,0.0339617,VALID,19.2599,VALID,65,VALID,0,
2004-10-21, 01:38:00,VALID,916.339,VALID,0,VALID,100,VALID,0.0339617,VALID,19.2564,VALID,61,VALID,0.178646,
2004-10-21, 01:39:00,VALID,916.325,VALID,0,VALID,100,VALID,0.101885,VALID,19.2621,VALID,29,VALID,0.458984,
2004-10-21, 01:40:00,VALID,916.323,VALID,0,VALID,100,VALID,0.0849042,VALID,19.2626,VALID,23,VALID,0.514323,
2004-10-21, 01:41:00,VALID,916.318,VALID,0,VALID,100,VALID,0.0679233,VALID,19.2494,VALID,30,VALID,0.602134,
2004-10-21, 01:42:00,VALID,916.304,VALID,0,VALID,100,VALID,0.0849042,VALID,19.2599,VALID,42,VALID,0.425305,
2004-10-21, 01:43:00,VALID,916.306,VALID,0,VALID,100,VALID,0.0339617,VALID,19.2465,VALID,42,VALID,0.312137,
2004-10-21, 01:44:00,VALID,916.293,VALID,0,VALID,100,VALID,0.0849042,VALID,19.2529,VALID,42,VALID,0.428085,
2004-10-21, 01:45:00,VALID,916.302,VALID,0,VALID,100,VALID,0,VALID,19.2546,VALID,42,VALID,0.614769,
2004-10-21, 01:46:00,VALID,916.293,VALID,0,VALID,100,VALID,-0.0169808,VALID,19.2514,VALID,42,VALID,0.792302,
2004-10-21, 01:47:00,VALID,916.303,VALID,0,VALID,100,VALID,-0.0339617,VALID,19.2581,VALID,42,VALID,0.93314,
2004-10-21, 01:48:00,VALID,916.299,VALID,0,VALID,100,VALID,-0.0339617,VALID,19.2645,VALID,42,VALID,0.947621,
2004-10-21, 01:49:00,VALID,916.307,VALID,0,VALID,100,VALID,-0.0679233,VALID,19.2546,VALID,43,VALID,0.844866,
2004-10-21, 01:50:00,VALID,916.3,VALID,0,VALID,100,VALID,-0.0339617,VALID,19.2519,VALID,50,VALID,0.880035,
2004-10-21, 01:51:00,VALID,916.305,VALID,0.2,VALID,100,VALID,-0.0679233,VALID,19.2553,VALID,52,VALID,0.779552,
2004-10-21, 01:52:00,VALID,916.31,VALID,0,VALID,100,VALID,-0.0339617,VALID,19.2454,VALID,53,VALID,0.723366,
2004-10-21, 01:53:00,VALID,916.32,VALID,0,VALID,100,VALID,-0.0339617,VALID,19.2415,VALID,66,VALID,1.00248,
2004-10-21, 01:54:00,VALID,916.309,VALID,0,VALID,100,VALID,-0.0679233,VALID,19.2551,VALID,88,VALID,0.876488,
2004-10-21, 01:55:00,VALID,916.303,VALID,0,VALID,100,VALID,-0.0679233,VALID,19.262,VALID,96,VALID,0.835574,
2004-10-21, 01:56:00,VALID,916.291,VALID,0,VALID,100,VALID,-0.0849042,VALID,19.2449,VALID,96,VALID,0.635099,
2004-10-21, 01:57:00,VALID,916.271,VALID,0,VALID,100,VALID,-0.0509425,VALID,19.2482,VALID,96,VALID,0.320513,
2004-10-21, 01:58:00,VALID,916.28,VALID,0,VALID,100,VALID,-0.0679233,VALID,19.2549,VALID,96,VALID,0,
2004-10-21, 01:59:00,VALID,916.276,VALID,0,VALID,100,VALID,-0.0849042,VALID,19.2616,VALID,96,VALID,0.0557528,
2004-10-21, 02:00:00,VALID,916.283,VALID,0,VALID,100,VALID,0,VALID,19.2733,VALID,96,VALID,0.353277,
2004-10-21, 02:01:00,VALID,916.276,VALID,0,VALID,100,VALID,0,VALID,19.2631,VALID,96,VALID,0.635861,
2004-10-21, 02:02:00,VALID,916.272,VALID,0,VALID,100,VALID,0.0169808,VALID,19.2608,VALID,96,VALID,0.667535,
2004-10-21, 02:03:00,VALID,916.27,VALID,0,VALID,100,VALID,0.0339617,VALID,19.234,VALID,96,VALID,0.732777,
2004-10-21, 02:04:00,VALID,916.257,VALID,0,VALID,100,VALID,0.0339617,VALID,19.2469,VALID,96,VALID,0.603561,
2004-10-21, 02:05:00,VALID,916.246,VALID,0,VALID,100,VALID,0.0679233,VALID,19.2301,VALID,96,VALID,0.539063,
2004-10-21, 02:06:00,VALID,916.233,VALID,0,VALID,100,VALID,0.0679233,VALID,19.2499,VALID,96,VALID,0.493712,
2004-10-21, 02:07:00,VALID,916.234,VALID,0,VALID,100,VALID,0.0169808,VALID,19.2631,VALID,96,VALID,0.438388,
2004-10-21, 02:08:00,VALID,916.224,VALID,0,VALID,100,VALID,0.0509425,VALID,19.2892,VALID,96,VALID,0.362537,
2004-10-21, 02:09:00,VALID,916.216,VALID,0,VALID,100,VALID,0.0509425,VALID,19.3147,VALID,96,VALID,0.158249,
2004-10-21, 02:10:00,VALID,916.218,VALID,0,VALID,100,VALID,0.0169808,VALID,19.3505,VALID,96,VALID,0.0424107,
2004-10-21, 02:11:00,VALID,916.222,VALID,0,VALID,100,VALID,0.0339617,VALID,19.3401,VALID,44,VALID,0.421113,
2004-10-21, 02:12:00,VALID,916.215,VALID,0,VALID,100,VALID,0.0509425,VALID,19.3277,VALID,285,VALID,0.860647,
2004-10-21, 02:13:00,VALID,916.203,VALID,0,VALID,100,VALID,0.0339617,VALID,19.344,VALID,276,VALID,0.513494,
2004-10-21, 02:14:00,VALID,916.208,VALID,0,VALID,100,VALID,0.0849042,VALID,19.3406,VALID,277,VALID,0.003125,
2004-10-21, 02:15:00,VALID,916.212,VALID,0,VALID,100,VALID,-0.0509425,VALID,19.3249,VALID,277,VALID,0,
2004-10-21, 02:16:00,VALID,916.208,VALID,0,VALID,100,VALID,-0.0509425,VALID,19.3423,VALID,277,VALID,0,
2004-10-21, 02:17:00,VALID,916.198,VALID,0,VALID,100,VALID,-0.0679233,VALID,19.3358,VALID,277,VALID,0,
2004-10-21, 02:18:00,VALID,916.193,VALID,0,VALID,100,VALID,-0.0509425,VALID,19.3289,VALID,277,VALID,0,
2004-10-21, 02:19:00,VALID,916.172,VALID,0,VALID,100,VALID,-0.0679233,VALID,19.349,VALID,277,VALID,0,
2004-10-21, 02:20:00,VALID,916.164,VALID,0,VALID,100,VALID,-0.0679233,VALID,19.3458,VALID,277,VALID,0,
2004-10-21, 02:21:00,VALID,916.161,VALID,0,VALID,100,VALID,-0.0509425,VALID,19.3455,VALID,277,VALID,0,
2004-10-21, 02:22:00,VALID,916.158,VALID,0,VALID,100,VALID,-0.0679233,VALID,19.3584,VALID,277,VALID,0,
2004-10-21, 02:23:00,VALID,916.152,VALID,0,VALID,100,VALID,-0.0679233,VALID,19.352,VALID,277,VALID,0.00545058,
2004-10-21, 02:24:00,VALID,916.15,VALID,0,VALID,100,VALID,-0.101885,VALID,19.3619,VALID,277,VALID,0.351042,
2004-10-21, 02:25:00,VALID,916.135,VALID,0,VALID,100,VALID,-0.0679233,VALID,19.3423,VALID,276,VALID,0.507449,
2004-10-21, 02:26:00,VALID,916.127,VALID,0,VALID,100,VALID,-0.0849042,VALID,19.3323,VALID,266,VALID,0.568788,
2004-10-21, 02:27:00,VALID,916.131,VALID,0,VALID,100,VALID,-0.101885,VALID,19.3224,VALID,266,VALID,0.447049,
2004-10-21, 02:28:00,VALID,916.122,VALID,0,VALID,100,VALID,-0.0849042,VALID,19.3291,VALID,266,VALID,0.436012,
2004-10-21, 02:29:00,VALID,916.12,VALID,0,VALID,100,VALID,-0.0169808,VALID,19.3391,VALID,266,VALID,0.0869141,
2004-10-21, 02:30:00,VALID,916.117,VALID,0,VALID,100,VALID,0.0169808,VALID,19.3381,VALID,266,VALID,0.0953526,
2004-10-21, 02:31:00,VALID,916.12,VALID,0,VALID,100,VALID,0,VALID,19.3378,VALID,266,VALID,0.129102,
2004-10-21, 02:32:00,VALID,916.122,VALID,0,VALID,100,VALID,-0.0169808,VALID,19.3572,VALID,246,VALID,0.535243,
2004-10-21, 02:33:00,VALID,916.109,VALID,0,VALID,100,VALID,0,VALID,19.3542,VALID,217,VALID,0.459263,
2004-10-21, 02:34:00,VALID,916.122,VALID,0,VALID,100,VALID,0,VALID,19.3604,VALID,205,VALID,0.437322,
2004-10-21, 02:35:00,VALID,916.115,VALID,0,VALID,100,VALID,0,VALID,19.357,VALID,200,VALID,0.0658482,
2004-10-21, 02:36:00,VALID,916.101,VALID,0,VALID,100,VALID,0,VALID,19.3634,VALID,197,VALID,0.175249,
2004-10-21, 02:37:00,VALID,916.083,VALID,0,VALID,100,VALID,0.0169808,VALID,19.3768,VALID,193,VALID,0.206936,
2004-10-21, 02:38:00,VALID,916.087,VALID,0,VALID,100,VALID,-0.0169808,VALID,19.3701,VALID,193,VALID,0.180078,
2004-10-21, 02:39:00,VALID,916.083,VALID,0,VALID,100,VALID,0,VALID,19.3731,VALID,200,VALID,0.240916,
2004-10-21, 02:40:00,VALID,916.069,VALID,0,VALID,100,VALID,0,VALID,19.3731,VALID,212,VALID,0.260861,
2004-10-21, 02:41:00,VALID,916.04,VALID,0,VALID,100,VALID,0,VALID,19.3734,VALID,262,VALID,0.547461,
2004-10-21, 02:42:00,VALID,916.033,VALID,0,VALID,100,VALID,0,VALID,19.3699,VALID,287,VALID,0.312309,
2004-10-21, 02:43:00,VALID,916.019,VALID,0,VALID,100,VALID,0,VALID,19.3599,VALID,244,VALID,0.763927,
2004-10-21, 02:44:00,VALID,916.014,VALID,0,VALID,100,VALID,0,VALID,19.3634,VALID,244,VALID,0.384718,
2004-10-21, 02:45:00,VALID,916.007,VALID,0,VALID,100,VALID,0,VALID,19.3704,VALID,258,VALID,0.224516,
2004-10-21, 02:46:00,VALID,915.982,VALID,0,VALID,100,VALID,0,VALID,19.3599,VALID,258,VALID,0.0603198,
2004-10-21, 02:47:00,VALID,915.966,VALID,0,VALID,100,VALID,0.0169808,VALID,19.3761,VALID,270,VALID,0.287946,
2004-10-21, 02:48:00,VALID,915.946,VALID,0,VALID,100,VALID,0,VALID,19.3893,VALID,279,VALID,0.167302,
2004-10-21, 02:49:00,VALID,915.929,VALID,0,VALID,100,VALID,0,VALID,19.3922,VALID,279,VALID,0.0378196,
2004-10-21, 02:50:00,VALID,915.924,VALID,0,VALID,100,VALID,-0.0169808,VALID,19.3994,VALID,279,VALID,0.0990234,
2004-10-21, 02:51:00,VALID,915.922,VALID,0,VALID,100,VALID,0,VALID,19.4022,VALID,279,VALID,0.036859,
2004-10-21, 02:52:00,VALID,915.909,VALID,0,VALID,100,VALID,0.0169808,VALID,19.3957,VALID,279,VALID,0.199128,
2004-10-21, 02:53:00,VALID,915.885,VALID,0,VALID,100,VALID,0,VALID,19.4056,VALID,277,VALID,0.241642,
2004-10-21, 02:54:00,VALID,915.883,VALID,0,VALID,100,VALID,0.0169808,VALID,19.4054,VALID,277,VALID,0.146129,
2004-10-21, 02:55:00,VALID,915.88,VALID,0,VALID,100,VALID,-0.0169808,VALID,19.4089,VALID,277,VALID,0,
2004-10-21, 02:56:00,VALID,915.876,VALID,0,VALID,100,VALID,0,VALID,19.4056,VALID,277,VALID,0,
2004-10-21, 02:57:00,VALID,915.876,VALID,0,VALID,100,VALID,0,VALID,19.4022,VALID,277,VALID,0,
2004-10-21, 02:58:00,VALID,915.87,VALID,0,VALID,100,VALID,-0.0169808,VALID,19.4081,VALID,277,VALID,0,
2004-10-21, 02:59:00,VALID,915.873,VALID,0,VALID,100,VALID,-0.0169808,VALID,19.4089,VALID,277,VALID,0,
2004-10-21, 03:00:00,VALID,915.856,VALID,0,VALID,100,VALID,0,VALID,19.4024,VALID,277,VALID,0,
2004-10-21, 03:01:00,VALID,915.858,VALID,0,VALID,100,VALID,0,VALID,19.3922,VALID,224,VALID,0.23056,
2004-10-21, 03:02:00,VALID,915.834,VALID,0,VALID,100,VALID,-0.0169808,VALID,19.3763,VALID,213,VALID,0.13681,
2004-10-21, 03:03:00,VALID,915.807,VALID,0,VALID,100,VALID,0.0169808,VALID,19.3863,VALID,213,VALID,0.129616,
2004-10-21, 03:04:00,VALID,915.799,VALID,0,VALID,100,VALID,0,VALID,19.396,VALID,213,VALID,0.261265,
2004-10-21, 03:05:00,VALID,915.781,VALID,0,VALID,100,VALID,0,VALID,19.3858,VALID,213,VALID,0.0998476,
2004-10-21, 03:06:00,VALID,915.758,VALID,0,VALID,100,VALID,-0.0169808,VALID,19.393,VALID,213,VALID,0,
2004-10-21, 03:07:00,VALID,915.744,VALID,0,VALID,100,VALID,0,VALID,19.3855,VALID,213,VALID,0.0176711,
2004-10-21, 03:08:00,VALID,915.718,VALID,0,VALID,100,VALID,0,VALID,19.389,VALID,213,VALID,0,
2004-10-21, 03:09:00,VALID,915.703,VALID,0,VALID,100,VALID,0,VALID,19.3793,VALID,213,VALID,0,
2004-10-21, 03:10:00,VALID,915.673,VALID,0,VALID,100,VALID,0.0169808,VALID,19.3634,VALID,213,VALID,0,
2004-10-21, 03:11:00,VALID,915.659,VALID,0,VALID,100,VALID,0.0169808,VALID,19.3468,VALID,213,VALID,0,
2004-10-21, 03:12:00,VALID,915.659,VALID,0,VALID,100,VALID,0.0169808,VALID,19.3403,VALID,213,VALID,0,
2004-10-21, 03:13:00,VALID,915.644,VALID,0,VALID,100,VALID,0,VALID,19.347,VALID,213,VALID,0,
2004-10-21, 03:14:00,VALID,915.646,VALID,0,VALID,100,VALID,0,VALID,19.3602,VALID,213,VALID,0,
2004-10-21, 03:15:00,VALID,915.634,VALID,0,VALID,100,VALID,-0.0169808,VALID,19.3664,VALID,213,VALID,0,
2004-10-21, 03:16:00,VALID,915.629,VALID,0,VALID,100,VALID,0,VALID,19.3468,VALID,213,VALID,0,
2004-10-21, 03:17:00,VALID,915.617,VALID,0,VALID,100,VALID,0,VALID,19.3115,VALID,213,VALID,0,
2004-10-21, 03:18:00,VALID,915.608,VALID,0,VALID,100,VALID,0,VALID,19.2795,VALID,213,VALID,0,
2004-10-21, 03:19:00,VALID,915.622,VALID,0,VALID,100,VALID,-0.0169808,VALID,19.2762,VALID,213,VALID,0,
2004-10-21, 03:20:00,VALID,915.635,VALID,0,VALID,100,VALID,0.0169808,VALID,19.2693,VALID,202,VALID,0.119444,
2004-10-21, 03:21:00,VALID,915.633,VALID,0,VALID,100,VALID,0,VALID,19.2797,VALID,184,VALID,0.344477,
2004-10-21, 03:22:00,VALID,915.638,VALID,0,VALID,100,VALID,0,VALID,19.276,VALID,184,VALID,0.259527,
2004-10-21, 03:23:00,VALID,915.624,VALID,0,VALID,100,VALID,0.0169808,VALID,19.2728,VALID,184,VALID,0.491071,
2004-10-21, 03:24:00,VALID,915.62,VALID,0,VALID,100,VALID,0,VALID,19.2797,VALID,183,VALID,0.450457,
2004-10-21, 03:25:00,VALID,915.614,VALID,0,VALID,100,VALID,0.0169808,VALID,19.2792,VALID,188,VALID,0.292969,
2004-10-21, 03:26:00,VALID,915.619,VALID,0,VALID,100,VALID,0,VALID,19.2954,VALID,211,VALID,0.610085,
2004-10-21, 03:27:00,VALID,915.621,VALID,0,VALID,100,VALID,0,VALID,19.2988,VALID,212,VALID,0.355718,
2004-10-21, 03:28:00,VALID,915.627,VALID,0,VALID,100,VALID,0,VALID,19.3088,VALID,216,VALID,0.420732,
2004-10-21, 03:29:00,VALID,915.632,VALID,0,VALID,100,VALID,0,VALID,19.3018,VALID,211,VALID,0.494606,
2004-10-21, 03:30:00,VALID,915.633,VALID,0,VALID,100,VALID,0,VALID,19.3021,VALID,190,VALID,0.428234,
2004-10-21, 03:31:00,VALID,915.646,VALID,0,VALID,100,VALID,-0.0169808,VALID,19.2981,VALID,211,VALID,0.499047,
2004-10-21, 03:32:00,VALID,915.629,VALID,0,VALID,100,VALID,0.0169808,VALID,19.3147,VALID,198,VALID,0.672433,
2004-10-21, 03:33:00,VALID,915.641,VALID,0,VALID,100,VALID,0.0169808,VALID,19.3147,VALID,207,VALID,0.927989,
2004-10-21, 03:34:00,VALID,915.663,VALID,0,VALID,100,VALID,0,VALID,19.3078,VALID,243,VALID,0.525568,
2004-10-21, 03:35:00,VALID,915.664,VALID,0,VALID,100,VALID,0.0169808,VALID,19.311,VALID,246,VALID,0.145647,
2004-10-21, 03:36:00,VALID,915.672,VALID,0,VALID,100,VALID,0.0169808,VALID,19.3083,VALID,327,VALID,0.285429,
2004-10-21, 03:37:00,VALID,915.691,VALID,0,VALID,100,VALID,0,VALID,19.318,VALID,350,VALID,0.124047,
2004-10-21, 03:38:00,VALID,915.681,VALID,0,VALID,100,VALID,0.0509425,VALID,19.3048,VALID,350,VALID,0.241642,
2004-10-21, 03:39:00,VALID,915.69,VALID,0,VALID,100,VALID,0.0169808,VALID,19.2919,VALID,350,VALID,0.393483,
2004-10-21, 03:40:00,VALID,915.682,VALID,0,VALID,100,VALID,0.0169808,VALID,19.272,VALID,350,VALID,0.0065407,
2004-10-21, 03:41:00,VALID,915.68,VALID,0,VALID,100,VALID,0.0169808,VALID,19.2758,VALID,350,VALID,0,
2004-10-21, 03:42:00,VALID,915.671,VALID,0,VALID,100,VALID,0,VALID,19.2859,VALID,350,VALID,0,
2004-10-21, 03:43:00,VALID,915.654,VALID,0,VALID,100,VALID,0,VALID,19.2691,VALID,350,VALID,0.0365189,
2004-10-21, 03:44:00,VALID,915.657,VALID,0,VALID,100,VALID,0.0339617,VALID,19.2688,VALID,350,VALID,0.00327035,